{"data":{"norad_id":60926,"epoch":"2026-09-21T22:23:50.115552Z","epoch_age_seconds":64680,"freshness":"FRESH","line1":"1 60926U 24155C   26264.93321893 -.00000043  00000+0  45029-5 0  9990","line2":"2 60926  53.1599  93.9165 0001078 107.3546 252.7590 15.69704451119274","mean_motion":15.69704451,"eccentricity":0.0001078,"inclination_deg":53.1599,"raan_deg":93.9165,"arg_perigee_deg":107.3546,"mean_anomaly_deg":252.759,"bstar":4.5029e-6,"rev_number":11927,"period_min":91.737014511402,"perigee_km":359.01628615645,"apogee_km":360.46897300458,"semimajor_km":6737.8796295805,"source":"CELESTRAK","updated_at":"2026-09-22T09:00:49.288672Z"}}